When you browse on this site, cookies collect data to enhance your experience and personalize the content and advertising you see.
Visit our Privacy Policy to learn more. By continuing to use the site, you agree to this use of cookies and data.
  • en France
  • Liste des pays
  • À 7 jours
  • Température de l'eau
  • Carte satellitaire
  • Carte météo
  • Widgets météo
  • user-avatar
    Se connecter

    Météo par heure à Townsville

    Ce jour, 17 Juillet, Mercredi

    Heure Température Précipitation Vent Pression Humidité
    00:00 +14°C° 0 mm 2 m/s 757 mmHg 65%
    01:00 +14°C° 0 mm 2 m/s 757 mmHg 66%
    02:00 +13°C° 0 mm 2 m/s 757 mmHg 67%
    03:00 +13°C° 0 mm 2 m/s 756 mmHg 67%
    04:00 +13°C° 0 mm 2 m/s 756 mmHg 68%
    05:00 +13°C° 0 mm 2 m/s 756 mmHg 67%
    06:00 +12°C° 0 mm 2 m/s 757 mmHg 65%
    07:00 +12°C° 0 mm 2 m/s 757 mmHg 64%
    08:00 +15°C° 0 mm 2 m/s 757 mmHg 55%
    09:00 +17°C° 0 mm 2 m/s 758 mmHg 46%
    10:00 +20°C° 0 mm 2 m/s 758 mmHg 36%
    11:00 +21°C° 0 mm 2 m/s 757 mmHg 35%
    12:00 +23°C° 0 mm 2 m/s 757 mmHg 34%
    13:00 +24°C° 0 mm 3 m/s 756 mmHg 33%
    14:00 +24°C° 0 mm 3 m/s 756 mmHg 36%
    15:00 +22°C° 0 mm 3 m/s 755 mmHg 39%
    16:00 +22°C° 0 mm 3 m/s 755 mmHg 42%
    17:00 +20°C° 0 mm 3 m/s 755 mmHg 53%
    18:00 +18°C° 0 mm 2 m/s 756 mmHg 63%
    19:00 +16°C° 0 mm 2 m/s 756 mmHg 74%
    20:00 +15°C° 0 mm 2 m/s 756 mmHg 76%
    21:00 +15°C° 0 mm 2 m/s 757 mmHg 78%
    22:00 +15°C° 0 mm 1 m/s 757 mmHg 80%
    23:00 +14°C° 0 mm 2 m/s 757 mmHg 80%

    Demain, 18 Juillet, Jeudi

    Heure Température Précipitation Vent Pression Humidité
    00:00 +14°C° 0 mm 2 m/s 757 mmHg 80%
    01:00 +14°C° 0 mm 2 m/s 756 mmHg 80%
    02:00 +14°C° 0 mm 2 m/s 756 mmHg 78%
    03:00 +14°C° 0 mm 2 m/s 756 mmHg 76%
    04:00 +14°C° 0 mm 2 m/s 756 mmHg 73%
    05:00 +13°C° 0 mm 2 m/s 756 mmHg 73%
    06:00 +13°C° 0 mm 2 m/s 757 mmHg 72%
    07:00 +13°C° 0 mm 2 m/s 757 mmHg 72%
    08:00 +15°C° 0 mm 2 m/s 757 mmHg 61%
    09:00 +18°C° 0 mm 2 m/s 757 mmHg 50%
    10:00 +21°C° 0 mm 2 m/s 757 mmHg 40%
    11:00 +22°C° 0 mm 3 m/s 757 mmHg 37%
    12:00 +24°C° 0 mm 3 m/s 756 mmHg 35%
    13:00 +25°C° 0 mm 3 m/s 756 mmHg 32%
    14:00 +24°C° 0 mm 3 m/s 755 mmHg 36%
    15:00 +24°C° 0 mm 3 m/s 755 mmHg 40%
    16:00 +22°C° 0 mm 3 m/s 755 mmHg 44%
    17:00 +20°C° 0 mm 3 m/s 755 mmHg 53%
    18:00 +18°C° 0 mm 2 m/s 756 mmHg 62%
    19:00 +16°C° 0 mm 2 m/s 756 mmHg 71%
    20:00 +15°C° 0 mm 2 m/s 756 mmHg 73%
    21:00 +15°C° 0 mm 2 m/s 757 mmHg 75%
    22:00 +15°C° 0 mm 2 m/s 757 mmHg 77%
    23:00 +14°C° 0 mm 2 m/s 757 mmHg 78%

    Après-demain, 19 Juillet, Vendredi

    Heure Température Précipitation Vent Pression Humidité
    00:00 +14°C° 0 mm 2 m/s 757 mmHg 80%
    01:00 +14°C° 0 mm 2 m/s 757 mmHg 82%
    02:00 +13°C° 0 mm 2 m/s 757 mmHg 83%
    03:00 +13°C° 0 mm 2 m/s 756 mmHg 83%
    04:00 +13°C° 0 mm 2 m/s 756 mmHg 84%
    05:00 +13°C° 0 mm 2 m/s 757 mmHg 83%
    06:00 +12°C° 0 mm 2 m/s 757 mmHg 82%
    07:00 +12°C° 0 mm 2 m/s 757 mmHg 81%
    08:00 +15°C° 0 mm 2 m/s 757 mmHg 68%
    09:00 +17°C° 0 mm 2 m/s 758 mmHg 55%
    10:00 +20°C° 0 mm 3 m/s 758 mmHg 41%
    11:00 +21°C° 0 mm 3 m/s 757 mmHg 38%
    12:00 +22°C° 0 mm 3 m/s 757 mmHg 35%
    13:00 +24°C° 0 mm 3 m/s 756 mmHg 31%
    14:00 +24°C° 0 mm 3 m/s 756 mmHg 34%
    15:00 +22°C° 0 mm 3 m/s 756 mmHg 37%
    16:00 +21°C° 0 mm 3 m/s 755 mmHg 40%
    17:00 +19°C° 0 mm 3 m/s 756 mmHg 48%
    18:00 +17°C° 0 mm 2 m/s 756 mmHg 56%
    19:00 +15°C° 0 mm 2 m/s 756 mmHg 63%
    20:00 +15°C° 0 mm 2 m/s 756 mmHg 66%
    21:00 +15°C° 0 mm 2 m/s 757 mmHg 68%
    22:00 +14°C° 0 mm 2 m/s 757 mmHg 70%
    23:00 +14°C° 0 mm 2 m/s 757 mmHg 73%

    20 Juillet, Samedi

    Heure Température Précipitation Vent Pression Humidité
    00:00 +14°C° 0 mm 2 m/s 757 mmHg 76%
    01:00 +13°C° 0 mm 3 m/s 757 mmHg 78%
    02:00 +12°C° 0 mm 3 m/s 757 mmHg 80%
    03:00 +13°C° 0 mm 2 m/s 757 mmHg 82%
    04:00 +13°C° 0 mm 2 m/s 756 mmHg 84%
    05:00 +13°C° 0 mm 2 m/s 757 mmHg 85%
    06:00 +12°C° 0 mm 2 m/s 757 mmHg 86%
    07:00 +12°C° 0 mm 2 m/s 757 mmHg 88%
    08:00 +15°C° 0 mm 2 m/s 757 mmHg 77%
    09:00 +18°C° 0 mm 2 m/s 758 mmHg 67%
    10:00 +20°C° 0 mm 2 m/s 758 mmHg 57%
    11:00 +21°C° 0 mm 2 m/s 757 mmHg 55%
    12:00 +22°C° 0 mm 3 m/s 756 mmHg 53%
    13:00 +24°C° 0 mm 3 m/s 756 mmHg 51%
    14:00 +22°C° 0 mm 3 m/s 755 mmHg 53%
    15:00 +22°C° 0 mm 3 m/s 755 mmHg 55%
    16:00 +22°C° 0 mm 4 m/s 755 mmHg 57%
    17:00 +20°C° 0 mm 3 m/s 755 mmHg 66%
    18:00 +18°C° 0 mm 3 m/s 755 mmHg 74%
    19:00 +17°C° 0 mm 2 m/s 756 mmHg 83%
    20:00 +16°C° 0 mm 2 m/s 756 mmHg 85%
    21:00 +16°C° 0 mm 2 m/s 756 mmHg 87%
    22:00 +16°C° 0 mm 2 m/s 756 mmHg 90%
    23:00 +16°C° 0.1 mm 2 m/s 756 mmHg 90%

    21 Juillet, Dimanche

    Heure Température Précipitation Vent Pression Humidité
    00:00 +16°C° 0.1 mm 2 m/s 756 mmHg 90%
    01:00 +15°C° 0.1 mm 2 m/s 756 mmHg 90%
    02:00 +15°C° 0 mm 2 m/s 755 mmHg 91%
    03:00 +15°C° 0 mm 2 m/s 755 mmHg 91%
    04:00 +15°C° 0 mm 2 m/s 755 mmHg 92%
    05:00 +14°C° 0 mm 3 m/s 755 mmHg 92%
    06:00 +14°C° 0 mm 3 m/s 755 mmHg 92%
    07:00 +13°C° 0 mm 3 m/s 756 mmHg 93%
    08:00 +17°C° 0 mm 2 m/s 756 mmHg 82%
    09:00 +20°C° 0 mm 2 m/s 756 mmHg 72%
    10:00 +23°C° 0 mm 2 m/s 756 mmHg 62%
    11:00 +24°C° 0 mm 2 m/s 755 mmHg 58%
    12:00 +25°C° 0 mm 3 m/s 755 mmHg 55%
    13:00 +26°C° 0 mm 3 m/s 754 mmHg 52%
    14:00 +25°C° 0 mm 3 m/s 754 mmHg 55%
    15:00 +25°C° 0 mm 3 m/s 753 mmHg 58%
    16:00 +24°C° 0 mm 3 m/s 753 mmHg 61%
    17:00 +22°C° 0 mm 3 m/s 753 mmHg 71%
    18:00 +20°C° 0 mm 3 m/s 754 mmHg 81%
    19:00 +18°C° 0 mm 2 m/s 754 mmHg 90%
    20:00 +18°C° 0 mm 2 m/s 754 mmHg 91%
    21:00 +18°C° 0 mm 2 m/s 755 mmHg 92%
    22:00 +17°C° 0 mm 2 m/s 755 mmHg 93%
    23:00 +17°C° 0 mm 2 m/s 755 mmHg 93%

    22 Juillet, Lundi

    Heure Température Précipitation Vent Pression Humidité
    00:00 +17°C° 0 mm 2 m/s 754 mmHg 93%
    01:00 +17°C° 0 mm 3 m/s 754 mmHg 94%
    02:00 +17°C° 0 mm 3 m/s 754 mmHg 94%
    03:00 +17°C° 0 mm 3 m/s 754 mmHg 94%
    04:00 +17°C° 0 mm 3 m/s 754 mmHg 95%
    05:00 +17°C° 0 mm 3 m/s 754 mmHg 94%
    06:00 +17°C° 0 mm 3 m/s 755 mmHg 94%
    07:00 +17°C° 0 mm 3 m/s 755 mmHg 94%
    08:00 +19°C° 0 mm 3 m/s 755 mmHg 86%
    09:00 +21°C° 0 mm 3 m/s 755 mmHg 77%
    10:00 +24°C° 0 mm 3 m/s 756 mmHg 69%
    11:00 +25°C° 0.1 mm 3 m/s 755 mmHg 68%
    12:00 +25°C° 0.1 mm 4 m/s 755 mmHg 66%
    13:00 +26°C° 0.1 mm 4 m/s 754 mmHg 65%
    14:00 +26°C° 0.1 mm 4 m/s 754 mmHg 65%
    15:00 +26°C° 0.1 mm 4 m/s 754 mmHg 65%
    16:00 +26°C° 0.1 mm 4 m/s 753 mmHg 64%
    17:00 +24°C° 0 mm 3 m/s 754 mmHg 72%
    18:00 +21°C° 0 mm 3 m/s 754 mmHg 79%
    19:00 +20°C° 0 mm 2 m/s 754 mmHg 87%
    20:00 +20°C° 0 mm 2 m/s 755 mmHg 88%
    21:00 +19°C° 0 mm 2 m/s 755 mmHg 89%
    22:00 +19°C° 0 mm 2 m/s 755 mmHg 89%
    23:00 +19°C° 0 mm 3 m/s 755 mmHg 90%
    Voir plus